Torna al catalogo

STARLINK-11550

AttivoComunicazioniVLEO
NORAD 63052·PAYLOAD·🇺🇸 United States

Lanciato Feb 21, 2025 da Cape Canaveral Space Force Station

Loading…

Prossimi Passaggi (prossime 24 ore)

TLE

AggiornatoSource: CelesTrak SupGP

Epoca: Sep 14, 2026, 14:51 UTC

1 63052C 25035A   26257.61923611  .00105360  00000+0  81850-3 0  2578
2 63052  43.0000 316.3239 0001583 289.1324 192.6877 15.70781026    16

Traccia STARLINK-11550 in tempo reale con AllMySat

Download on the App Store